Weather History for Martinsburg, WV

Change the Weather History Date:

Saturday, November 5, 2011

  Actual Average Record
Temperature  
Mean Temperature 41 °F 48 °F  
Max Temperature 52 °F 59 °F 81 °F (1975)
Min Temperature 29 °F 37 °F 23 °F (1951)
Degree Days  
Heating Degree Days 24 17  
Month to date heating degree days 94 83  
Since 1 July heating degree days 466 529  
Cooling Degree Days 0 0  
Month to date cooling degree days 0 0  
Year to date cooling degree days 1284 895  
Moisture  
Dew Point 25 °F    
Average Humidity 60    
Maximum Humidity 85    
Minimum Humidity 35    
Precipitation  
Precipitation 0.00 in 0.10 in 1.09 in (1986)
Month to date precipitation 0.00 0.52  
Year to date precipitation 40.57 33.38  
Sea Level Pressure  
Sea Level Pressure 30.42 in    
Wind  
Wind Speed 3 mph (NNE)    
Max Wind Speed 10 mph    
Max Gust Speed 15 mph    
Visibility 10 miles    
Events      
T = Trace of Precipitation, MM = Missing Value Source: NWS Daily Summary

Daily Weather History Graph

Daily Weather History Graph

Search for Another Location

Airport:

Trip Planner

Search our weather history database for the weather conditions in past years. The results will help you decide how hot, cold, wet, or windy it might be!

Date:

Astronomy

Nov. 05, 2011 Rise Set
Actual Time 7:44 AM EDT 6:06 PM EDT
Civil Twilight 7:16 AM EDT 6:34 PM EDT
Nautical Twilight 6:44 AM EDT 7:06 PM EDT
Astronomical Twilight 6:12 AM EDT 7:37 PM EDT
Moon 3:22 PM EDT (11/5) 2:53 AM EDT (11/5)
Length of Visible Light 11h 18m
Length of Day
10h 22m
Waxing Gibbous, 78% of the Moon is Illuminated
Nov 5
Waxing Gibbous
Nov 10
Full
Nov 18
Last Quarter
Nov 25
New
Dec 2
First Quarter

Hourly Weather History & Observations

Time (EDT) Temp. Windchill Dew Point Humidity Pressure Visibility Wind Dir Wind Speed Gust Speed Precip Events Conditions
12:53 AM 39.9 °F 35.1 °F 24.1 °F 53% 30.31 in 10.0 mi North 6.9 mph - N/A   Clear
1:53 AM 39.0 °F 34.0 °F 25.0 °F 57% 30.31 in 10.0 mi North 6.9 mph - N/A   Clear
2:53 AM 37.4 °F 31.4 °F 24.8 °F 60% 30.31 in 10.0 mi North 8.1 mph - N/A   Clear
3:53 AM 37.0 °F 32.4 °F 25.0 °F 62% 30.33 in 10.0 mi North 5.8 mph - N/A   Clear
4:53 AM 37.0 °F 31.6 °F 25.0 °F 62% 30.35 in 10.0 mi North 6.9 mph - N/A   Clear
5:53 AM 36.0 °F 29.6 °F 25.0 °F 64% 30.36 in 10.0 mi North 8.1 mph - N/A   Clear
6:53 AM 35.1 °F 30.1 °F 24.1 °F 64% 30.38 in 10.0 mi North 5.8 mph - N/A   Clear
9:53 AM 39.9 °F 35.1 °F 26.1 °F 58% 30.47 in 10.0 mi North 6.9 mph - N/A   Clear
10:53 AM 43.0 °F 41.3 °F 25.0 °F 49% 30.48 in 10.0 mi ENE 3.5 mph - N/A   Clear
11:53 AM 44.6 °F 43.1 °F 24.8 °F 46% 30.47 in 10.0 mi North 3.5 mph - N/A   Clear
12:53 PM 46.0 °F - 25.0 °F 44% 30.47 in 10.0 mi Calm Calm - N/A   Clear
1:53 PM 48.9 °F - 25.0 °F 39% 30.45 in 10.0 mi Variable 3.5 mph - N/A   Clear
2:53 PM 50.0 °F - 24.8 °F 37% 30.43 in 10.0 mi Calm Calm - N/A   Clear
3:53 PM 51.1 °F - 25.0 °F 36% 30.43 in 10.0 mi ESE 4.6 mph - N/A   Clear
4:53 PM 51.1 °F - 24.1 °F 35% 30.43 in 10.0 mi Calm Calm - N/A   Clear
5:53 PM 48.0 °F - 25.0 °F 41% 30.43 in 10.0 mi SE 3.5 mph - N/A   Clear
6:53 PM 43.0 °F - 24.1 °F 47% 30.43 in 10.0 mi Calm Calm - N/A   Clear
7:53 PM 39.9 °F - 25.0 °F 55% 30.45 in 10.0 mi Calm Calm - N/A   Clear
8:53 PM 36.0 °F - 27.0 °F 70% 30.45 in 10.0 mi Calm Calm - N/A   Clear
9:53 PM 33.1 °F - 26.1 °F 75% 30.47 in 10.0 mi Calm Calm - N/A   Clear
10:53 PM 30.9 °F - 26.1 °F 82% 30.48 in 10.0 mi Calm Calm - N/A   Clear
11:53 PM 30.0 °F - 25.0 °F 82% 30.48 in 8.0 mi Calm Calm - N/A   Clear